EW6799 Weather Reports


Display with metric or nautical units.
time (UTC)temp
F
wind
direction
speed
MPH
gust
MPH
rain 1hr
in
rain 24hr
in
rain mn
in
humidity
%
barometer
mb
20220522142903 76 12 10.0 17.0 0.00 0.00 0.00 71 1010.0
20220522141403 77 20 10.0 17.0 0.00 0.00 0.00 68 1010.2
20220522140904 77 15 10.0 17.0 0.00 0.00 0.00 67 1010.2
20220522135904 78 17 9.0 14.0 0.00 0.00 0.00 63 1010.3
20220522135404 79 18 7.0 15.0 0.00 0.00 0.00 62 1010.3
20220522134904 78 12 9.0 14.0 0.00 0.00 0.00 63 1010.3
20220522131903 79 8 10.0 16.0 0.00 0.00 0.00 61 1010.4
20220522131403 81 13 8.0 15.0 0.00 0.00 0.00 57 1010.5
20220522130903 81 10 6.0 13.0 0.00 0.00 0.00 56 1010.5
20220522130402 81 11 6.0 13.0 0.00 0.00 0.00 55 1010.6
20220522125903 81 9 6.0 12.0 0.00 0.00 0.00 55 1010.7
20220522125403 82 14 7.0 13.0 0.00 0.00 0.00 54 1010.7
20220522124403 83 348 5.0 12.0 0.00 0.00 0.00 51 1010.8
20220522123903 84 350 5.0 9.0 0.00 0.00 0.00 49 1010.7
20220522123402 84 357 4.0 9.0 0.00 0.00 0.00 48 1010.8
20220522121903 85 335 3.0 12.0 0.00 0.00 0.00 44 1011.0
20220522121403 85 1 6.0 10.0 0.00 0.00 0.00 43 1011.0
20220522115902 87 6 9.0 13.0 0.00 0.00 0.00 39 1011.2
20220522115403 88 5 7.0 14.0 0.00 0.00 0.00 36 1011.2
20220522114903 88 8 8.0 14.0 0.00 0.00 0.00 33 1011.3
20220522113903 89 6 6.0 13.0 0.00 0.00 0.00 32 1011.3
20220522113403 89 7 7.0 12.0 0.00 0.00 0.00 31 1011.4
20220522112903 90 18 4.0 12.0 0.00 0.00 0.00 30 1011.4
20220522110402 89 1 8.0 12.0 0.00 0.00 0.00 29 1011.7
20220522105903 89 1 6.0 12.0 0.00 0.00 0.00 27 1011.7
20220522104903 87 4 4.0 8.0 0.00 0.00 0.00 35 1011.7
20220522104402 86 34 4.0 10.0 0.00 0.00 0.00 39 1011.8
20220522103903 86 2 5.0 10.0 0.00 0.00 0.00 41 1011.9
20220522102902 85 10 5.0 9.0 0.00 0.00 0.00 45 1012.0
20220522102403 85 11 3.0 8.0 0.00 0.00 0.00 45 1012.0
20220522100903 83 358 6.0 9.0 0.00 0.00 0.00 50 1012.1
20220522095903 83 348 5.0 8.0 0.00 0.00 0.00 51 1012.2
20220522095402 82 344 3.0 7.0 0.00 0.00 0.00 51 1012.2
20220522094903 82 0 3.0 8.0 0.00 0.00 0.00 52 1012.3
20220522094403 82 348 6.0 9.0 0.00 0.00 0.00 53 1012.3
20220522093903 82 349 5.0 9.0 0.00 0.00 0.00 53 1012.3
20220522093403 81 0 6.0 9.0 0.00 0.00 0.00 54 1012.3
20220522092903 81 344 6.0 9.0 0.00 0.00 0.00 54 1012.3
20220522092403 81 358 3.0 8.0 0.00 0.00 0.00 55 1012.3
20220522091903 81 351 6.0 8.0 0.00 0.00 0.00 54 1012.5
20220522091403 81 346 2.0 7.0 0.00 0.00 0.00 54 1012.5
20220522090403 81 342 2.0 5.0 0.00 0.00 0.00 55 1012.6
20220522085402 81 331 3.0 6.0 0.00 0.00 0.00 53 1012.6
20220522084403 81 341 0.0 0.0 0.00 0.00 0.00 52 1012.8
20220522083903 81 353 0.0 0.0 0.00 0.00 0.00 50 1012.7
20220522082903 82 345 0.0 0.0 0.00 0.00 0.00 44 1012.9
20220522081903 82 32 0.0 0.0 0.00 0.00 0.00 34 1013.0
20220522081402 82 18 0.0 0.0 0.00 0.00 0.00 35 1013.1
20220522080903 81 84 0.0 0.0 0.00 0.00 0.00 36 1013.1
20220522075903 80 86 0.0 3.0 0.00 0.00 0.00 36 1013.1
20220522075403 80 43 0.0 3.0 0.00 0.00 0.00 37 1013.2
20220522074903 80 81 0.0 1.0 0.00 0.00 0.00 36 1013.2
20220522074403 79 38 2.0 5.0 0.00 0.00 0.00 36 1013.2
20220522073903 79 107 0.0 5.0 0.00 0.00 0.00 36 1013.2
20220522072403 78 96 2.0 6.0 0.00 0.00 0.00 37 1013.3
20220522071403 77 103 0.0 1.0 0.00 0.00 0.00 39 1013.4
20220522070403 76 101 0.0 0.0 0.00 0.00 0.00 41 1013.4
20220522065403 76 106 0.0 0.0 0.00 0.00 0.00 41 1013.5
20220522064903 76 61 0.0 0.0 0.00 0.00 0.00 42 1013.5
20220522063902 75 79 0.0 0.0 0.00 0.00 0.00 43 1013.5
20220522062903 74 101 0.0 0.0 0.00 0.00 0.00 42 1013.6
20220522061902 74 90 0.0 0.0 0.00 0.00 0.00 43 1013.5
20220522060903 74 91 0.0 0.0 0.00 0.00 0.00 43 1013.6
20220522060403 74 104 0.0 0.0 0.00 0.00 0.00 42 1013.5
20220522055403 74 107 0.0 0.0 0.00 0.00 0.00 42 1013.4
20220522054903 74 124 0.0 0.0 0.00 0.00 0.00 43 1013.4
20220522054403 73 125 0.0 0.0 0.00 0.00 0.00 43 1013.5
20220522053903 73 91 0.0 0.0 0.00 0.00 0.00 43 1013.5
20220522053403 73 99 0.0 0.0 0.00 0.00 0.00 43 1013.5
20220522052903 73 97 0.0 0.0 0.00 0.00 0.00 43 1013.6
20220522052402 73 94 0.0 0.0 0.00 0.00 0.00 44 1013.6
20220522051902 73 47 0.0 0.0 0.00 0.00 0.00 44 1013.5
20220522051403 72 36 0.0 0.0 0.00 0.00 0.00 44 1013.5
20220522050403 72 62 0.0 0.0 0.00 0.00 0.00 43 1013.6
20220522045903 72 65 0.0 0.0 0.00 0.00 0.00 43 1013.6
20220522045403 72 107 0.0 0.0 0.00 0.00 0.00 43 1013.5
20220522044903 72 96 0.0 0.0 0.00 0.00 0.00 43 1013.5
20220522044403 73 58 0.0 0.0 0.00 0.00 0.00 42 1013.6
20220522043903 73 100 0.0 0.0 0.00 0.00 0.00 42 1013.6
20220522043403 73 72 0.0 0.0 0.00 0.00 0.00 42 1013.6
20220522042403 73 106 1.0 6.0 0.00 0.00 0.00 41 1013.6
20220522041903 73 118 1.0 6.0 0.00 0.00 0.00 41 1013.6
20220522035903 73 120 5.0 9.0 0.00 0.00 0.00 41 1013.7
20220522035403 73 123 3.0 9.0 0.00 0.00 0.00 41 1013.7
20220522034903 73 117 5.0 8.0 0.00 0.00 0.00 41 1013.8
20220522033903 73 112 1.0 7.0 0.00 0.00 0.00 41 1013.7
20220522033403 73 127 1.0 5.0 0.00 0.00 0.00 41 1013.8
20220522032903 73 125 1.0 3.0 0.00 0.00 0.00 42 1013.8
20220522032403 73 106 0.0 0.0 0.00 0.00 0.00 42 1013.9
20220522031903 73 106 0.0 0.0 0.00 0.00 0.00 43 1013.9
20220522031403 74 115 0.0 0.0 0.00 0.00 0.00 42 1013.9
20220522030903 74 100 0.0 0.0 0.00 0.00 0.00 42 1013.9
20220522030403 74 131 0.0 0.0 0.00 0.00 0.00 42 1013.9
20220522025903 74 108 0.0 6.0 0.00 0.00 0.00 42 1013.9
20220522025403 74 126 4.0 7.0 0.00 0.00 0.00 42 1013.9
20220522024404 74 116 0.0 5.0 0.00 0.00 0.00 43 1014.0
20220522023903 74 111 3.0 8.0 0.00 0.00 0.00 42 1014.0
20220522023403 74 123 2.0 6.0 0.00 0.00 0.00 42 1014.0
20220522022403 74 114 1.0 7.0 0.00 0.00 0.00 42 1014.0
20220522021903 74 113 3.0 9.0 0.00 0.00 0.00 42 1014.1
20220522021404 74 128 2.0 9.0 0.00 0.00 0.00 42 1014.1
20220522020903 74 125 2.0 3.0 0.00 0.00 0.00 42 1014.2
20220522020403 74 120 0.0 0.0 0.00 0.00 0.00 42 1014.2
20220522015903 74 133 0.0 3.0 0.00 0.00 0.00 42 1014.2
20220522015403 74 123 0.0 0.0 0.00 0.00 0.00 43 1014.2
20220522014903 74 122 0.0 5.0 0.00 0.00 0.00 43 1014.3
20220522014404 74 118 0.0 0.0 0.00 0.00 0.00 43 1014.3
20220522012403 75 121 3.0 6.0 0.00 0.00 0.00 42 1014.6
20220522011903 75 134 3.0 7.0 0.00 0.00 0.00 42 1014.6
20220522010903 75 121 3.0 7.0 0.00 0.00 0.00 42 1014.7
20220522010403 75 120 2.0 6.0 0.00 0.00 0.00 42 1014.8
20220522005903 76 117 3.0 7.0 0.00 0.00 0.00 42 1014.9
20220522005403 76 116 1.0 6.0 0.00 0.00 0.00 42 1015.0
20220522004903 76 114 0.0 0.0 0.00 0.00 0.00 43 1015.0
20220522004404 76 116 0.0 0.0 0.00 0.00 0.00 43 1015.0
20220522003903 76 112 0.0 0.0 0.00 0.00 0.00 43 1015.1
20220522002403 76 111 4.0 8.0 0.00 0.00 0.00 43 1015.2
20220522001903 76 118 2.0 7.0 0.00 0.00 0.00 43 1015.2
20220522001404 76 115 0.0 6.0 0.00 0.00 0.00 43 1015.3
20220522000903 76 117 2.0 6.0 0.00 0.00 0.00 43 1015.3
20220521235904 76 124 0.0 0.0 0.00 0.00 0.00 42 1015.4
20220521235403 77 91 0.0 0.0 0.00 0.00 0.00 42 1015.5
20220521234903 77 106 2.0 7.0 0.00 0.00 0.00 41 1015.6
20220521234404 77 124 3.0 7.0 0.00 0.00 0.00 41 1015.6
20220521233403 77 127 0.0 0.0 0.00 0.00 0.00 40 1015.7
20220521232403 77 131 0.0 6.0 0.00 0.00 0.00 40 1015.7
20220521231903 77 129 1.0 6.0 0.00 0.00 0.00 39 1015.8
20220521231403 77 118 1.0 8.0 0.00 0.00 0.00 39 1015.8
20220521230903 78 109 0.0 0.0 0.00 0.00 0.00 39 1015.9
20220521225903 78 121 2.0 9.0 0.00 0.00 0.00 38 1015.9
20220521225403 78 120 3.0 8.0 0.00 0.00 0.00 38 1015.9
20220521224403 78 122 5.0 9.0 0.00 0.00 0.00 38 1016.1
20220521223904 78 121 4.0 8.0 0.00 0.00 0.00 37 1016.1
20220521223403 78 134 2.0 6.0 0.00 0.00 0.00 38 1016.1
20220521222903 77 119 1.0 5.0 0.00 0.00 0.00 38 1016.1
20220521222403 77 124 0.0 0.0 0.00 0.00 0.00 39 1016.1
20220521221904 77 120 0.0 0.0 0.00 0.00 0.00 41 1016.1
20220521220903 76 139 0.0 0.0 0.00 0.00 0.00 44 1016.2
20220521220404 76 139 0.0 0.0 0.00 0.00 0.00 46 1016.3
20220521215903 76 139 0.0 0.0 0.00 0.00 0.00 47 1016.3
20220521215403 76 139 0.0 0.0 0.00 0.00 0.00 47 1016.3
20220521214904 76 139 0.0 0.0 0.00 0.00 0.00 48 1016.3
20220521214403 76 139 0.0 0.0 0.00 0.00 0.00 51 1016.4
20220521213403 76 139 0.0 0.0 0.00 0.00 0.00 54 1016.4
20220521212904 76 139 0.0 0.0 0.00 0.00 0.00 51 1016.4
20220521212404 77 139 0.0 0.0 0.00 0.00 0.00 54 1016.4
20220521211403 76 139 0.0 0.0 0.00 0.00 0.00 56 1016.5
20220521210903 76 139 0.0 0.0 0.00 0.00 0.00 56 1016.5
20220521205903 77 139 0.0 0.0 0.00 0.00 0.00 57 1016.4
20220521205403 77 139 0.0 0.0 0.00 0.00 0.00 56 1016.4
20220521204904 77 139 0.0 0.0 0.00 0.00 0.00 56 1016.5
20220521204403 77 139 0.0 0.0 0.00 0.00 0.00 56 1016.5
20220521203903 78 139 0.0 0.0 0.00 0.00 0.00 55 1016.5
20220521203404 79 134 0.0 0.0 0.00 0.00 0.00 52 1016.5
20220521202903 79 125 0.0 0.0 0.00 0.00 0.00 43 1016.5
20220521202403 79 136 0.0 0.0 0.00 0.00 0.00 44 1016.5
20220521200904 80 245 0.0 0.0 0.00 0.00 0.00 45 1016.4
20220521195904 80 245 0.0 0.0 0.00 0.00 0.00 44 1016.4
20220521194904 81 236 0.0 0.0 0.00 0.00 0.00 43 1016.4
20220521194403 81 105 0.0 3.0 0.00 0.00 0.00 38 1016.3
20220521193903 81 49 3.0 6.0 0.00 0.00 0.00 38 1016.3
20220521191904 82 66 0.0 0.0 0.00 0.00 0.00 36 1016.2
20220521191404 82 57 1.0 5.0 0.00 0.00 0.00 36 1016.3
20220521190904 83 71 3.0 7.0 0.00 0.00 0.00 36 1016.3
20220521190403 83 42 0.0 0.0 0.00 0.00 0.00 35 1016.3
20220521185903 83 31 0.0 0.0 0.00 0.00 0.00 35 1016.3
20220521185404 83 54 0.0 7.0 0.00 0.00 0.00 35 1016.3
20220521184404 84 42 3.0 9.0 0.00 0.00 0.00 34 1016.2
20220521183903 84 42 7.0 12.0 0.00 0.00 0.00 33 1016.2
20220521183404 85 28 1.0 8.0 0.00 0.00 0.00 33 1016.1
20220521182904 85 28 5.0 9.0 0.00 0.00 0.00 33 1016.1
20220521182404 85 56 0.0 6.0 0.00 0.00 0.00 33 1016.1
20220521181404 85 337 1.0 6.0 0.00 0.00 0.00 33 1016.1
20220521180903 84 35 6.0 12.0 0.00 0.00 0.00 34 1016.0
20220521180403 84 12 4.0 7.0 0.00 0.00 0.00 37 1016.1
20220521175403 85 15 5.0 7.0 0.00 0.00 0.00 37 1016.2
20220521174903 85 37 5.0 8.0 0.00 0.00 0.00 36 1016.2
20220521174404 85 6 3.0 8.0 0.00 0.00 0.00 37 1016.2
20220521173904 85 14 4.0 9.0 0.00 0.00 0.00 36 1016.3
20220521173404 85 27 1.0 8.0 0.00 0.00 0.00 36 1016.3
20220521172904 86 8 2.0 9.0 0.00 0.00 0.00 35 1016.3
20220521171903 86 58 2.0 12.0 0.00 0.00 0.00 33 1016.3
20220521171403 86 21 5.0 12.0 0.00 0.00 0.00 32 1016.3
20220521170403 87 28 7.0 15.0 0.00 0.00 0.00 28 1016.4
20220521165904 87 35 11.0 16.0 0.00 0.00 0.00 26 1016.4
20220521164903 88 26 9.0 16.0 0.00 0.00 0.00 27 1016.5
20220521163404 88 61 9.0 17.0 0.00 0.00 0.00 22 1016.5
20220521162903 88 30 9.0 20.0 0.00 0.00 0.00 22 1016.6
20220521162404 88 44 12.0 17.0 0.00 0.00 0.00 22 1016.6
20220521161904 88 27 9.0 16.0 0.00 0.00 0.00 22 1016.7
20220521161403 88 57 10.0 17.0 0.00 0.00 0.00 23 1016.7
20220521160904 88 52 11.0 17.0 0.00 0.00 0.00 24 1016.8
20220521155903 88 35 6.0 15.0 0.00 0.00 0.00 27 1016.7
20220521155404 88 30 8.0 20.0 0.00 0.00 0.00 26 1016.8
20220521153904 86 14 5.0 12.0 0.00 0.00 0.00 34 1017.1
20220521152903 87 13 8.0 13.0 0.00 0.00 0.00 35 1017.1
20220521152404 88 10 7.0 20.0 0.00 0.00 0.00 32 1017.1
20220521151904 89 3 6.0 20.0 0.00 0.00 0.00 29 1017.2
20220521151403 89 34 12.0 17.0 0.00 0.00 0.00 26 1017.3
20220521150904 89 59 7.0 17.0 0.00 0.00 0.00 25 1017.3
20220521150404 89 50 8.0 16.0 0.00 0.00 0.00 28 1017.4
20220521145904 89 32 9.0 20.0 0.00 0.00 0.00 28 1017.5
20220521144904 89 46 13.0 20.0 0.00 0.00 0.00 27 1017.5
20220521144403 89 45 12.0 22.0 0.00 0.00 0.00 28 1017.6
20220521143904 89 38 9.0 21.0 0.00 0.00 0.00 29 1017.6
20220521143403 89 54 9.0 15.0 0.00 0.00 0.00 29 1017.6